Theta_e
296 293 291 291 291 290 290 289 289 289 290 294 302 304 303 302 303 306 312 318 318 318 319 319 319 317 316 315 314 313 314 313 313 313 313 313 313 313 314 314 314 315 315
291 291 290 290 290 290 289 290 290 289 288 292 297 300 299 300 300 301 305 309 313 314 315 315 314 314 314 313 312 312 311 311 311 311 311 311 311 312 313 313 313 314 314
290 289 289 289 289 289 290 290 289 289 288 290 290 296 298 297 298 298 297 297 300 308 309 309 309 310 310 311 311 311 310 309 309 310 310 310 310 311 311 311 312 312 313
291 289 289 288 289 289 289 289 289 288 287 287 287 289 291 294 295 294 293 292 291 293 301 304 305 306 307 309 309 309 308 307 307 308 308 309 309 309 310 311 311 312 313
293 292 290 289 289 289 289 290 288 288 287 287 287 287 287 289 291 292 288 288 290 288 288 298 299 301 303 305 306 307 306 306 306 306 306 307 308 308 309 310 311 311 311
292 290 291 291 291 289 288 288 287 287 287 287 289 287 286 286 287 286 286 288 287 287 286 286 286 290 298 300 302 304 305 305 305 305 305 306 307 307 308 309 309 310 312
293 292 291 290 289 289 288 289 287 286 285 287 286 285 285 286 285 285 286 286 286 286 285 285 285 285 287 296 298 300 302 303 303 304 304 305 306 307 308 308 309 310 310
293 292 291 291 291 289 287 287 289 286 284 286 283 283 280 283 285 285 284 285 284 285 285 285 284 284 284 285 290 295 298 300 302 304 304 305 306 306 307 308 308 309 311
293 292 291 291 291 290 289 289 289 287 285 283 284 285 281 280 281 283 282 284 283 283 283 284 284 284 284 285 287 289 295 297 300 303 304 305 305 306 307 307 309 309 310
291 292 291 291 291 290 289 289 289 287 287 284 282 284 281 282 280 278 281 282 282 283 283 283 283 284 284 284 288 290 293 295 299 301 303 304 305 306 307 307 308 308 308
290 291 291 290 290 290 289 288 288 287 284 283 283 282 280 280 280 279 277 279 281 281 282 282 282 282 284 284 284 287 292 295 297 299 301 303 304 305 306 306 306 306 306
288 289 289 289 289 288 288 288 287 286 286 284 283 281 281 280 279 278 277 277 278 280 281 281 281 281 282 282 287 290 291 293 295 297 300 302 303 303 304 304 304 304 304
285 286 287 287 287 287 287 287 285 285 284 283 283 281 281 280 280 279 278 276 277 278 279 280 281 281 284 282 284 289 290 291 293 295 299 301 301 300 300 301 302 302 303
285 286 286 287 287 287 287 286 286 284 284 281 282 281 280 280 280 279 279 278 275 276 277 278 279 280 281 282 285 290 284 290 291 294 296 297 297 297 297 298 299 300 300
285 285 285 285 286 286 286 285 285 284 283 282 282 281 279 278 279 279 279 279 278 274 275 276 277 279 280 281 283 283 282 288 292 292 293 294 294 295 296 296 297 297 298
284 284 284 284 284 285 285 284 283 284 283 282 282 281 280 279 279 280 279 279 278 276 273 276 277 279 280 283 284 283 282 289 289 291 292 293 293 294 294 295 295 296 296
283 283 283 283 283 284 284 283 283 282 282 282 282 281 281 281 279 279 281 279 278 278 274 276 278 279 279 279 281 281 283 282 283 289 291 291 292 292 293 293 294 294 295
282 283 283 283 283 283 283 283 282 283 282 281 281 280 280 281 280 279 280 279 279 278 278 276 277 278 278 279 280 279 283 285 282 287 290 290 290 291 291 292 292 292 293
282 282 282 282 282 283 283 283 283 282 280 280 281 280 280 280 279 280 279 279 279 280 278 277 277 278 278 279 279 279 280 280 284 286 287 288 289 289 290 291 291 290 290
281 282 283 283 282 283 283 283 282 282 281 280 280 281 281 281 280 280 280 279 280 279 279 277 278 280 279 279 279 278 278 279 279 282 284 286 287 288 288 289 288 288 287
281 282 282 282 282 282 283 282 281 281 280 280 281 281 282 283 284 283 281 281 281 279 279 278 278 278 278 278 277 278 277 277 278 279 278 279 280 281 282 285 284 285 287
278 279 279 280 280 282 284 285 283 281 282 281 280 281 282 284 284 286 286 286 284 280 276 276 275 276 278 276 275 276 277 276 276 279 278 279 280 279 280 280 284 286 287
277 278 279 279 279 280 285 286 286 281 281 281 281 282 283 285 285 283 284 286 285 286 285 280 277 278 277 278 278 277 277 278 277 280 278 276 278 277 279 280 284 285 286
277 277 278 278 278 279 284 287 288 281 280 281 282 283 283 282 282 282 282 281 281 282 283 282 277 279 279 280 279 278 276 276 277 278 278 274 277 276 278 278 283 285 285
275 277 278 277 277 278 284 285 285 283 281 281 283 283 282 282 283 285 282 280 280 281 283 285 285 285 285 284 283 277 274 274 273 275 277 275 276 275 277 277 278 283 284
273 277 278 275 279 277 282 284 284 280 279 282 283 283 285 282 285 285 281 278 275 278 279 278 277 278 279 278 281 278 276 273 273 272 276 275 276 276 273 276 277 278 278
Wind_Speed
6 5 4 4 4 3 3 5 5 5 6 6 6 8 7 7 7 4 7 15 15 12 12 12 12 11 11 10 9 8 10 9 8 9 8 9 8 8 8 8 8 8 8
6 6 6 5 4 4 4 4 6 6 5 5 7 6 6 7 7 6 6 10 13 12 12 11 10 10 9 9 8 8 9 8 8 8 8 7 7 7 7 7 7 7 7
7 6 5 5 5 5 6 6 7 5 6 6 7 6 6 6 6 7 7 6 6 11 11 10 10 9 8 8 8 8 8 8 8 7 7 6 7 7 7 7 7 7 7
6 6 5 4 4 5 4 6 6 6 5 6 5 4 4 5 6 6 6 5 5 4 7 10 9 9 9 8 8 7 7 6 7 6 6 6 6 6 6 7 7 8 9
7 5 5 4 5 4 5 7 5 5 6 6 6 4 4 4 5 5 5 5 6 4 3 8 9 8 7 8 7 7 6 6 6 5 4 5 5 6 6 7 8 8 7
6 5 5 6 4 4 4 5 6 4 3 5 7 6 4 3 4 4 5 4 4 4 4 5 3 3 6 7 6 6 6 6 6 5 5 5 6 6 7 7 7 8 10
6 6 4 4 4 5 5 7 4 8 4 4 4 4 4 4 3 3 3 3 4 4 4 4 3 3 3 7 6 6 6 7 5 4 5 6 7 8 9 8 9 9 10
7 6 6 4 4 5 6 5 5 4 3 2 4 3 2 3 2 1 2 3 3 3 4 4 4 4 3 1 1 4 6 7 7 6 7 8 8 8 9 9 9 9 11
6 8 6 6 5 5 5 5 7 4 4 1 1 4 3 4 2 1 2 3 5 2 3 4 3 4 3 2 3 3 5 8 8 9 9 9 9 10 10 10 13 11 12
6 5 7 5 7 2 5 5 4 3 4 5 1 1 3 4 4 2 1 2 2 4 4 2 3 3 3 2 2 1 4 8 10 10 10 10 11 11 12 12 14 15 14
5 5 5 6 6 6 5 4 4 5 2 4 4 3 2 2 3 4 3 2 1 1 2 3 3 3 4 3 1 2 6 10 11 11 12 13 13 13 13 14 14 15 15
3 4 5 5 4 4 6 5 5 4 3 2 1 2 4 4 3 4 3 1 2 2 2 2 3 3 2 2 1 3 8 10 12 13 14 14 14 14 15 15 15 16 17
2 4 4 5 5 5 5 5 5 6 5 4 3 2 2 2 2 3 3 3 3 1 1 1 1 2 2 2 1 5 7 11 13 14 14 14 14 15 15 16 16 17 18
4 5 5 6 6 7 6 6 3 4 5 5 6 4 3 2 2 2 3 4 2 1 0 2 1 1 1 0 2 7 5 12 12 13 13 14 14 14 15 16 17 18 18
5 5 5 6 6 6 6 5 4 4 5 3 4 4 3 2 3 3 3 2 4 4 4 2 2 1 0 0 4 3 4 10 12 13 13 13 13 14 16 17 17 19 20
7 7 6 7 7 6 6 7 4 5 5 3 3 4 3 2 3 3 3 3 2 3 3 2 2 2 1 2 5 5 5 10 13 13 13 14 15 16 17 19 19 19 20
7 8 8 7 7 7 7 7 6 5 6 4 5 4 4 4 3 3 2 2 3 2 3 0 1 2 1 3 4 4 5 5 5 13 15 17 17 18 17 18 18 19 20
5 7 7 7 7 7 7 7 8 5 5 4 3 5 4 3 4 3 3 3 2 2 3 3 1 2 2 3 3 4 4 4 5 12 18 18 18 17 18 18 18 20 22
7 7 8 8 8 6 7 6 7 6 6 5 5 5 4 4 4 2 2 3 2 1 2 2 1 1 2 2 3 3 3 4 5 15 16 17 17 17 17 20 22 23 22
6 6 7 8 8 7 6 5 3 2 3 4 5 5 5 4 3 3 2 2 2 2 1 0 2 2 2 3 2 3 5 2 6 7 11 13 14 17 21 21 22 22 22
6 8 9 7 6 5 4 4 5 5 4 4 4 4 4 5 6 5 3 3 3 2 1 2 2 2 2 1 3 2 4 5 5 5 3 4 5 7 8 14 17 21 22
7 7 6 6 5 3 7 11 6 3 1 3 4 3 2 2 1 5 7 9 8 4 3 2 2 3 4 2 2 2 3 3 5 1 2 11 4 9 7 6 18 24 25
5 6 6 5 4 2 8 9 12 5 4 3 3 3 4 4 6 4 7 7 4 4 5 4 3 3 4 3 3 3 4 4 6 8 6 10 5 9 6 8 21 26 25
3 3 3 3 3 3 9 9 9 6 5 4 4 4 4 4 4 4 4 3 3 3 4 2 4 5 5 6 5 3 3 3 4 7 3 7 6 9 6 7 24 24 20
2 2 2 3 3 2 7 8 8 6 6 7 7 5 5 4 8 11 6 4 3 3 4 8 8 9 11 13 10 2 3 4 5 5 4 4 3 10 9 9 8 15 17
2 2 2 3 5 4 8 9 4 2 3 4 4 5 11 8 13 13 4 5 3 4 3 2 3 5 6 6 9 1 2 4 5 6 2 4 7 7 6 3 3 7 10
Wind_Direction
115 110 107 99 96 110 84 99 96 97 94 86 90 95 82 72 59 52 82 84 89 100 105 102 94 94 90 87 85 84 77 68 65 63 54 54 48 48 50 46 43 41 34
135 134 138 136 101 108 117 116 113 95 83 91 85 83 82 74 68 60 74 84 89 90 86 86 87 85 89 88 88 81 74 70 59 55 48 47 47 49 46 42 32 27 21
148 139 135 129 152 129 124 102 92 91 95 82 82 81 85 74 77 75 78 70 68 89 94 92 87 84 81 84 83 73 70 62 59 49 45 42 30 32 30 28 18 11 4
138 134 136 144 142 131 131 122 122 108 99 95 87 76 81 85 78 77 85 81 72 53 85 89 83 80 81 77 77 73 67 61 53 52 41 38 20 13 13 14 6 358 360
137 141 136 142 149 139 135 136 112 111 119 104 104 83 87 98 113 107 104 111 110 97 68 103 89 80 79 71 73 75 71 57 52 44 30 22 9 354 359 358 358 348 333
135 130 139 141 133 126 112 95 116 88 104 111 103 91 76 67 90 108 114 110 119 107 93 79 63 36 81 68 65 67 61 52 34 23 360 4 346 347 336 342 326 336 320
146 138 138 127 127 130 125 128 94 114 73 112 96 50 45 58 114 125 125 131 129 114 100 97 77 51 9 58 56 50 39 33 17 8 351 342 337 332 325 328 331 322 323
142 137 143 141 142 126 122 128 134 122 87 174 122 97 124 348 15 113 120 148 153 138 130 130 130 120 99 67 83 55 28 20 5 351 344 337 328 323 318 316 314 318 317
149 144 144 149 142 145 160 158 144 139 142 209 192 138 133 195 147 26 241 206 169 161 153 151 151 133 125 97 64 34 16 0 350 343 338 327 322 313 313 318 316 317 319
136 150 142 160 142 144 161 155 150 134 139 155 97 104 67 140 157 136 293 244 200 177 173 171 152 151 143 144 154 353 12 350 343 339 328 321 315 314 313 320 325 321 317
135 145 150 150 152 149 130 139 157 148 156 153 146 153 120 60 85 131 175 213 304 217 187 177 165 163 163 167 138 308 355 343 342 333 326 317 313 311 315 314 311 309 308
126 131 133 136 121 115 137 141 131 117 148 140 129 144 151 161 177 144 126 142 170 236 193 178 163 174 164 169 247 11 340 335 330 326 320 312 310 314 311 310 309 308 308
142 147 129 132 130 131 130 125 142 132 142 133 124 106 86 91 113 119 120 124 147 208 166 322 217 163 166 136 338 329 350 330 323 318 315 312 319 315 312 309 310 307 307
153 149 140 137 133 132 129 121 113 108 111 119 118 105 97 79 105 131 140 136 94 110 76 158 360 115 112 120 326 346 326 321 313 313 316 316 312 308 308 307 304 304 305
147 138 132 125 122 127 121 122 119 109 98 106 110 103 101 64 70 77 95 118 143 160 202 206 137 266 48 74 305 316 307 308 313 315 312 308 305 307 305 304 304 307 305
145 141 134 131 124 119 122 116 104 112 114 99 99 120 113 96 83 73 83 80 62 120 144 194 209 180 256 297 299 330 305 317 313 317 312 310 306 307 309 307 304 304 306
143 146 144 140 137 133 125 122 114 120 114 129 141 124 112 116 122 101 91 86 86 86 111 249 249 233 269 309 310 312 304 298 294 315 314 311 310 307 306 306 308 306 304
134 141 137 130 128 127 128 139 123 118 92 113 132 131 141 149 132 143 137 130 139 136 131 177 242 272 245 273 273 294 307 308 311 311 315 313 310 308 309 306 308 310 308
135 133 132 130 124 116 114 102 115 143 191 160 164 147 166 156 166 162 147 153 144 122 118 133 264 245 270 287 315 302 293 296 296 308 311 309 311 310 311 312 312 309 307
127 120 115 112 108 101 101 113 116 141 215 186 176 169 164 164 180 176 162 162 139 113 90 54 256 260 243 280 274 289 306 281 298 295 299 295 306 308 307 308 308 305 303
102 113 110 100 100 110 139 149 186 184 157 149 152 156 151 162 188 183 145 175 154 182 201 238 276 265 258 269 271 276 290 296 289 259 272 281 286 293 292 298 297 300 296
71 79 81 103 107 133 182 178 152 137 63 170 171 173 134 189 255 245 234 222 207 179 207 181 242 276 278 250 241 243 268 305 320 263 312 299 293 289 284 281 290 298 301
94 93 94 113 127 153 198 197 207 173 181 159 163 163 203 211 216 228 259 252 298 274 229 194 218 233 270 247 266 270 261 269 278 289 299 290 296 280 283 286 294 296 299
89 103 112 131 166 215 231 252 220 166 161 177 189 211 196 174 223 197 223 255 261 287 283 287 209 247 247 269 246 241 250 269 278 277 264 280 299 293 296 289 289 296 297
72 105 158 167 161 198 253 260 264 178 183 205 210 188 177 182 226 235 207 220 235 249 279 291 301 317 321 318 318 348 331 326 308 296 286 261 295 309 297 285 279 294 298
157 129 165 188 216 205 246 259 162 136 163 174 171 184 207 199 227 235 185 166 181 252 274 301 328 338 323 309 322 318 266 291 298 309 268 323 312 327 309 259 291 297 289